SCP
0 0 0 0 0 0 0 0 0 0 0 0 0 0 0 0 0 0 0 0 0 0
0 0 0 0 0 0 0 0 0 0 0 0 0 0 0 0 0 0 0 0 0 0
0 0 0 0 0 0 0 0 0 0 0 0 0 0 0 0 0 0 0 0 0 0
0 0 0 0 0 0 0 0 0 0 0 0 0 0 0 0 0 0 0 0 0 0
0 0 0 0 0 0 0 0 0 0 0 0 0 0 0 0 0 0 0 0 0 0
0 0 0 0 0 0 0 0 0 0 0 0 0 0 0 0 0 0 0 0 0 0
0 0 0 0 0 0 0 0 0 0 0 0 0 0 0 0 0 0 0 0 0 0
0 0 0 0 0 0 0 0 0 0 0 0 0 0 0 0 0 0 0 0 0 0
0 0 0 0 0 0 0 0 0 0 0 0 0 0 0 0 0 0 0 0 0 0
0 0 0 0 0 0 0 0 0 0 0 0 0 0 0 0 0 0 0 0 0 0
0 0 0 0 0 0 0 0 0 0 0 0 0 0 0 0 0 0 0 0 0 0
0 0 0 0 0 0 0 0 0 0 0 0 0 0 0 0 0 0 0 0 0 0
0 0 0 0 0 0 0 0 0 0 0 0 0 0 0 0 0 0 0 0 0 0
0 0 0 0 0 0 0 0 0 0 0 0 0 0 0 0 0 0 0 0 0 0
Wind_Speed_500mb
77 79 82 85 87 87 85 83 76 73 68 68 65 69 74 79 80 72 71 70 68 67
71 72 79 84 84 86 83 81 80 71 69 61 64 60 62 73 72 66 66 67 63 62
73 73 77 81 83 82 85 82 77 75 67 61 62 62 61 69 72 71 66 61 57 54
78 77 77 81 83 81 84 81 79 71 62 57 61 61 53 61 64 63 60 56 53 50
77 76 78 78 83 77 76 74 76 70 55 55 66 61 53 52 54 54 52 49 45 43
73 73 75 77 80 79 79 71 68 66 56 61 68 62 58 49 46 48 45 40 36 33
71 72 76 78 77 78 78 70 63 61 56 55 55 53 54 45 46 42 40 37 36 35
70 70 74 76 76 76 76 71 66 63 57 59 57 52 53 49 50 51 55 53 36 26
69 71 74 76 77 76 72 68 68 65 65 65 56 52 53 54 55 45 46 30 25 33
70 74 77 78 78 76 74 72 66 62 62 63 55 46 48 53 52 47 37 33 37 45
79 80 81 81 80 77 74 71 69 64 61 57 45 39 37 41 45 34 39 41 46 44
84 87 87 84 82 78 75 73 69 62 55 50 36 27 23 22 31 39 36 39 39 40
86 94 96 87 81 77 71 71 66 62 51 38 41 24 27 22 24 30 33 34 34 34
89 97 100 89 79 74 72 69 64 57 52 41 32 36 29 26 28 28 26 24 21 20
Wind_Direction_500mb
330 328 326 324 321 318 315 312 311 301 295 294 288 277 279 274 277 274 267 264 261 259
330 328 326 325 322 321 316 309 308 304 293 293 289 282 277 275 272 275 269 264 261 258
330 330 329 327 326 319 317 311 304 303 298 293 295 281 276 273 272 270 263 260 257 256
329 329 326 325 328 322 317 314 309 302 298 297 293 294 276 279 275 266 260 256 253 251
328 328 328 326 327 326 321 314 312 309 299 297 292 298 273 275 273 267 260 255 249 248
327 327 329 329 329 328 326 318 313 312 307 291 290 290 278 265 265 260 257 255 253 255
325 327 330 332 329 329 327 322 315 306 304 302 298 289 275 257 253 244 243 249 258 263
323 325 329 332 333 329 330 328 322 313 306 305 299 289 267 249 249 264 253 244 242 259
323 325 329 331 332 333 330 328 324 319 313 309 298 284 272 260 252 257 254 251 267 263
326 328 328 329 330 332 332 329 328 326 326 314 308 290 281 265 253 267 249 258 261 255
329 328 328 327 328 328 331 329 329 326 325 319 312 308 298 274 262 260 261 264 267 264
327 327 326 324 323 324 326 328 326 326 323 325 318 318 306 287 269 269 265 263 265 264
319 323 324 321 320 319 321 321 324 322 325 316 318 310 302 283 278 269 266 267 266 265
312 317 321 319 318 317 317 317 319 320 320 323 307 303 292 286 273 267 269 271 280 280
Wind_Speed_850mb
77 79 82 85 87 87 85 83 76 73 68 68 65 69 74 79 80 72 71 70 68 67
71 72 79 84 84 86 83 81 80 71 69 61 64 60 62 73 72 66 66 67 63 62
73 73 77 81 83 82 85 82 77 75 67 61 62 62 61 69 72 71 66 61 57 54
78 77 77 81 83 81 84 81 79 71 62 57 61 61 53 61 64 63 60 56 53 50
77 76 78 78 83 77 76 74 76 70 55 55 66 61 53 52 54 54 52 49 45 43
73 73 75 77 80 79 79 71 68 66 56 61 68 62 58 49 46 48 45 40 36 33
71 72 76 78 77 78 78 70 63 61 56 55 55 53 54 45 46 42 40 37 36 35
70 70 74 76 76 76 76 71 66 63 57 59 57 52 53 49 50 51 55 53 36 26
69 71 74 76 77 76 72 68 68 65 65 65 56 52 53 54 55 45 46 30 25 33
70 74 77 78 78 76 74 72 66 62 62 63 55 46 48 53 52 47 37 33 37 45
79 80 81 81 80 77 74 71 69 64 61 57 45 39 37 41 45 34 39 41 46 44
84 87 87 84 82 78 75 73 69 62 55 50 36 27 23 22 31 39 36 39 39 40
86 94 96 87 81 77 71 71 66 62 51 38 41 24 27 22 24 30 33 34 34 34
89 97 100 89 79 74 72 69 64 57 52 41 32 36 29 26 28 28 26 24 21 20
Wind_Direction_850mb
330 328 326 324 321 318 315 312 311 301 295 294 288 277 279 274 277 274 267 264 261 259
330 328 326 325 322 321 316 309 308 304 293 293 289 282 277 275 272 275 269 264 261 258
330 330 329 327 326 319 317 311 304 303 298 293 295 281 276 273 272 270 263 260 257 256
329 329 326 325 328 322 317 314 309 302 298 297 293 294 276 279 275 266 260 256 253 251
328 328 328 326 327 326 321 314 312 309 299 297 292 298 273 275 273 267 260 255 249 248
327 327 329 329 329 328 326 318 313 312 307 291 290 290 278 265 265 260 257 255 253 255
325 327 330 332 329 329 327 322 315 306 304 302 298 289 275 257 253 244 243 249 258 263
323 325 329 332 333 329 330 328 322 313 306 305 299 289 267 249 249 264 253 244 242 259
323 325 329 331 332 333 330 328 324 319 313 309 298 284 272 260 252 257 254 251 267 263
326 328 328 329 330 332 332 329 328 326 326 314 308 290 281 265 253 267 249 258 261 255
329 328 328 327 328 328 331 329 329 326 325 319 312 308 298 274 262 260 261 264 267 264
327 327 326 324 323 324 326 328 326 326 323 325 318 318 306 287 269 269 265 263 265 264
319 323 324 321 320 319 321 321 324 322 325 316 318 310 302 283 278 269 266 267 266 265
312 317 321 319 318 317 317 317 319 320 320 323 307 303 292 286 273 267 269 271 280 280